Regional Weather Roundup
Issued by NWS Sterling, VA

Home | Current Version | Previous Version | Text Only | Print | Product List | Glossary Off
Versions: 1 2 3 4 5 6 7 8 9 10 11 12 13 14 15 16 17 18 19 20 21 22 23 24 25 26 27 28 29 30 31 32 33 34 35 36 37 38 39 40 41 42 43 44 45 46 47 48 49 50

000
ASUS41 KLWX 161210
RWRLWX

REGIONAL WEATHER ROUNDUP
NATIONAL WEATHER SERVICE BALTIMORE MD/WASHINGTON DC
800 AM EDT TUE SEP 16 2014

Note: "FAIR" indicates few or no clouds below 12,000 feet
with no significant weather and/or obstructions to visibility.
 TC=TEMPERATURE CELSIUS

 * =Non NWS site. Station does not report precipitation (e.g. rain,
    snow, etc.), thunder, or fog.

DCZ001-MDZ009-015-VAZ040>042-051-053>054-161300-
WASHINGTON METRO

CITY           SKY/WX    TMP DP  RH WIND       PRES   REMARKS
WASHINGTON NAT MOSUNNY   69  58  67 W6        30.03R
DULLES         MOSUNNY   59  59 100 CALM      30.03S
ANDREWS AFB    MOSUNNY   65  62  89 VRB1      30.02R
QUANTICO       PTSUNNY   64  61  90 NW3       30.03S
COLLEGE PARK*  MOSUNNY   61  61 100 CALM      30.02S
LEESBURG*      MOSUNNY   61  61 100 CALM      30.05R
GAITHERSBURG*  MOSUNNY   61  59  94 CALM      30.06S

$$

MDZ006>007-011-014-161300-
BALTIMORE METRO

CITY           SKY/WX    TMP DP  RH WIND       PRES   REMARKS
BWI AIRPORT    MOSUNNY   62  59  90 SW5       30.01R
MD SCIENCE CTR   N/A     64  59  83 MISG      30.01S
MARTIN STATE   MOSUNNY   64  63  94 W7        30.02R
ANNAPOLIS      PTSUNNY   65  60  84 W6        30.00S
FORT MEADE*    MOSUNNY   55  54  94 CALM      30.04R

$$

MDZ012-015-019>023-161300-
MARYLAND EASTERN SHORE

CITY           SKY/WX    TMP DP  RH WIND       PRES   REMARKS
OCEAN CITY     CLOUDY    70  64  81 W7        30.00F
SALISBURY        N/A    N/A N/A N/A MISG      30.00
BAY BRIDGE AP*   N/A     66  61  82 W8        30.01R
CAMBRIDGE*     MOSUNNY   68  63  83 CALM      30.01R

$$

MDZ017>025-161300-
SOUTHERN MARYLAND

CITY           SKY/WX    TMP DP  RH WIND       PRES   REMARKS
PATUXENT RIVER MOSUNNY   67  64  90 W6        30.01S
ST INIGOES     SUNNY     69  63  81 W5        30.01S
LEONARDTOWN*   SUNNY     64  63  94 W6        30.04R

$$

MDZ003>005-161300-
NORTH CENTRAL MARYLAND

CITY           SKY/WX    TMP DP  RH WIND       PRES   REMARKS
FREDERICK*     NOT AVBL
HAGERSTOWN APT PTSUNNY   60  54  80 W3        30.05R
WESTMINSTER*   MOSUNNY   61  57  88 CALM      30.02S

$$

MDZ501>502-161300-
WESTERN MARYLAND

CITY           SKY/WX    TMP DP  RH WIND       PRES   REMARKS
OAKLAND*       CLOUDY    50 N/A N/A NW5       30.11R FOG
CUMBERLAND*    CLOUDY    59  55  88 CALM      30.11R

$$

VAZ025>031-161300-
SHENANDOAH VALLEY

CITY           SKY/WX    TMP DP  RH WIND       PRES   REMARKS
WINCHESTER*    CLOUDY    63  55  77 CALM      30.05R
STAUNTON*      SUNNY     59  57  94 CALM      30.08S FOG

$$

WVZ021-048>050-054>055-161300-
EASTERN WEST VIRGINIA PANHANDLE

CITY           SKY/WX    TMP DP  RH WIND       PRES   REMARKS
MARTINSBURG    CLOUDY    62  56  80 CALM      30.05R
PETERSBURG*    CLOUDY    61  59  94 CALM      30.09R

$$

VAZ036>039-050-161300-
CENTRAL FOOTHILLS

CITY           SKY/WX    TMP DP  RH WIND       PRES   REMARKS
CHARLOTTESVILL FOG       61  60  97 CALM      30.04R VSB 1/4
ORANGE*        CLOUDY    61  59  94 CALM      30.05S FOG

$$

VAZ055>057-161300-
NORTH AND CENTRAL PIEDMONT

CITY           SKY/WX    TMP DP  RH WIND       PRES   REMARKS
FREDERICKSBRG* MOSUNNY   63  63 100 SW3       30.03R
STAFFORD*      CLOUDY    60  60 100 CALM      30.08R FOG

$$

NCZ024-NYZ072-PAZ021-071-VAZ022-071-161300-
OTHER REGIONAL OBSERVATIONS

CITY           SKY/WX    TMP DP  RH WIND       PRES   REMARKS
NEW YORK CITY  LGT RAIN  62  57  83 CALM      30.03R
PHILADELPHIA   PTSUNNY   64  60  87 SW3       29.99F
PITTSBURGH     PTSUNNY   54  53  97 NW6       30.11R
ROANOKE        MOSUNNY   67  57  70 NW12      30.09S
RICHMOND       MOSUNNY   68  64  87 SW5       30.03R
RALEIGH        PTSUNNY   69  66  90 CALM      30.07R FOG

$$

ANZ530>537-161300-
MARINE OBSERVATIONS

STATION/POSITION TIME  TEMP    WIND        PRES
                       AIR SEA DIR/SP/G
                 (UTC) (F)     (DEG/KT/KT) (MB)
THOMAS PT LIGHT  1200   66 74  300/  9/ 11 1017.0S
BALT KEY BRIDGE  1200   64     260/  8/  9 1016.1R
COVE POINT       1200   67     270/  5/  7 1016.1F
LEWISETTA        1200   68 73  260/  6/  8 1016.0F
SOLOMONS ISLAND  1200      76                N/A
PINEY POINT      1200          280/  9/ 10   N/A

$$



USA.gov is the U.S. government's official web portal to all federal, state and local government web resources and services.